TimeCST,TemperatureF,Dew PointF,Humidity,Sea Level PressureIn,VisibilityMPH,Wind Direction,Wind SpeedMPH,Gust SpeedMPH,PrecipitationIn,Events,Conditions,WindDirDegrees,DateUTC
12:15 AM,44.6,41.0,87,29.99,1.0,NW,3.5,-,N/A,,Mostly Cloudy,320,2012-11-06 06:15:00
12:35 AM,42.8,41.0,93,29.99,3.0,WNW,3.5,-,N/A,,Mostly Cloudy,290,2012-11-06 06:35:00
12:55 AM,44.6,41.0,87,29.99,6.0,WNW,3.5,-,N/A,,Overcast,290,2012-11-06 06:55:00
1:15 AM,44.6,42.8,93,29.99,10.0,NNW,3.5,-,N/A,,Overcast,330,2012-11-06 07:15:00
1:35 AM,44.6,42.8,93,29.98,10.0,NNW,4.6,-,N/A,,Overcast,340,2012-11-06 07:35:00
1:55 AM,46.4,42.8,87,29.99,10.0,NW,3.5,-,N/A,,Overcast,320,2012-11-06 07:55:00
2:15 AM,44.6,42.8,93,29.98,10.0,NW,5.8,-,N/A,,Mostly Cloudy,320,2012-11-06 08:15:00
2:35 AM,44.6,41.0,87,29.99,10.0,WNW,4.6,-,N/A,,Partly Cloudy,290,2012-11-06 08:35:00
2:55 AM,42.8,41.0,93,29.99,8.0,WNW,5.8,-,N/A,,Clear,300,2012-11-06 08:55:00
3:15 AM,42.8,39.2,87,29.99,9.0,NW,4.6,-,N/A,,Clear,310,2012-11-06 09:15:00
3:55 AM,42.8,39.2,87,30.00,7.0,NW,4.6,-,N/A,,Clear,310,2012-11-06 09:55:00
4:15 AM,42.8,39.2,87,30.00,5.0,WNW,4.6,-,N/A,,Clear,300,2012-11-06 10:15:00
4:35 AM,41.0,37.4,87,30.00,1.5,North,3.5,-,N/A,,Clear,350,2012-11-06 10:35:00
4:55 AM,42.8,39.2,87,30.00,8.0,WNW,3.5,-,N/A,,Mostly Cloudy,300,2012-11-06 10:55:00
5:35 AM,42.8,39.2,87,29.99,3.0,Calm,Calm,-,N/A,,Overcast,0,2012-11-06 11:35:00
5:45 AM,41.0,39.2,93,30.00,7.0,Calm,Calm,-,N/A,,Mostly Cloudy,0,2012-11-06 11:45:00
7:50 AM,46.4,42.8,87,30.06,10.0,NW,5.8,-,N/A,,Mostly Cloudy,310,2012-11-06 13:50:00
8:45 AM,48.2,44.6,87,30.06,7.0,NNW,6.9,-,N/A,,Mostly Cloudy,330,2012-11-06 14:45:00
9:45 AM,51.8,46.4,82,30.06,10.0,North,5.8,-,N/A,,Mostly Cloudy,350,2012-11-06 15:45:00
10:10 AM,53.6,46.4,77,30.06,10.0,NNW,4.6,-,N/A,,Mostly Cloudy,330,2012-11-06 16:10:00
10:45 AM,53.6,44.6,72,30.04,10.0,NNW,6.9,-,N/A,,Mostly Cloudy,330,2012-11-06 16:45:00
12:50 PM,57.2,44.6,63,30.01,10.0,NW,9.2,-,N/A,,Mostly Cloudy,310,2012-11-06 18:50:00
1:50 PM,57.2,42.8,59,29.99,10.0,North,9.2,-,N/A,,Mostly Cloudy,350,2012-11-06 19:50:00
2:50 PM,57.2,42.8,59,29.98,10.0,NW,9.2,-,N/A,,Mostly Cloudy,310,2012-11-06 20:50:00
3:55 PM,55.4,42.8,63,29.98,10.0,NW,4.6,-,N/A,,Overcast,320,2012-11-06 21:55:00
4:45 PM,55.4,44.6,67,29.99,10.0,NW,3.5,-,N/A,,Overcast,320,2012-11-06 22:45:00
5:45 PM,53.6,44.6,72,30.00,10.0,NW,5.8,-,N/A,,Overcast,320,2012-11-06 23:45:00
6:45 PM,51.8,42.8,71,30.00,10.0,Calm,Calm,-,N/A,,Mostly Cloudy,0,2012-11-07 00:45:00
7:45 PM,48.2,42.8,82,30.03,10.0,Calm,Calm,-,N/A,,Mostly Cloudy,0,2012-11-07 01:45:00
8:15 PM,48.2,42.8,82,30.03,10.0,WNW,4.6,-,N/A,,Mostly Cloudy,290,2012-11-07 02:15:00
8:35 PM,48.2,42.8,82,30.04,10.0,WNW,6.9,-,N/A,,Mostly Cloudy,300,2012-11-07 02:35:00
8:55 PM,48.2,42.8,82,30.04,10.0,NW,9.2,-,N/A,,Scattered Clouds,310,2012-11-07 02:55:00
9:15 PM,48.2,42.8,82,30.04,10.0,NNW,5.8,-,N/A,,Clear,330,2012-11-07 03:15:00
9:35 PM,48.2,42.8,82,30.04,10.0,NW,3.5,-,N/A,,Mostly Cloudy,320,2012-11-07 03:35:00
9:55 PM,46.4,42.8,87,30.04,10.0,WNW,3.5,-,N/A,,Overcast,300,2012-11-07 03:55:00
10:15 PM,46.4,42.8,87,30.04,10.0,NW,5.8,-,N/A,,Overcast,320,2012-11-07 04:15:00
10:35 PM,46.4,42.8,87,30.04,10.0,NW,5.8,-,N/A,,Overcast,320,2012-11-07 04:35:00
10:55 PM,46.4,41.0,81,30.03,10.0,NW,4.6,-,N/A,,Partly Cloudy,320,2012-11-07 04:55:00
11:15 PM,44.6,39.2,81,30.03,10.0,NNW,3.5,-,N/A,,Clear,330,2012-11-07 05:15:00
11:35 PM,44.6,41.0,87,30.03,10.0,NW,3.5,-,N/A,,Mostly Cloudy,310,2012-11-07 05:35:00
11:55 PM,44.6,41.0,87,30.02,10.0,NNW,3.5,-,N/A,,Overcast,330,2012-11-07 05:55:00